Starlink 4425

operational
NORAD ID: 53208 Int'l Des: 2022-084 Owner: SPXS Country: US Constellation: starlink
LEOCIRCULARRETROGRADESSO

Über Starlink 4425

Beschreibung wird geladen...

Live-Position

3D-Globus wird geladen...

Nächste Überflüge

Höhenverlauf

Altitude vs Time

uPlot chart will show altitude changes over time

Zweizeiliger Elementsatz

1 53208U 22084V 25299.12289788 .00001022 00000-0 84074-4 0 9998
2 53208 97.6049 358.4674 0000698 180.2670 179.8554 15.01261703179124
Epoch: 26. Okt. 2025 • Age: 15 hours

Aktueller Status

Höhe 566.7 km
Geschwindigkeit 7.58 km/s
Subsatellitenpunkt 26.15°N, 58.04°E
Startdatum 22. Juli 2022
Alter 3.2 years
Typ internet

Technische Details

Klassifizierung Payload
Masse 297.00 kg
Trockenmasse 275.00 kg
Gesamtmasse 297.00 kg
Länge 0.20 m
Durchmesser 2.80 m
Spannweite 9.00 m
Form Box + pan
Hersteller SPXS
Bus-Typ Starlink
Phasenstatus In Orbit
Besitzer/Staat SPXS/US

Große Konstellationen

Loading constellations...